Tracking 22993 objects as of 12-May-2021
HD Live streaming from Space Station
objects crossing your sky now

INTELSAT 508

Track INTELSAT 508 now!
INTELSAT 508 is classified as:


NORAD ID: 14786
Int'l Code: 1984-023A
Perigee: 36,589.9 km
Apogee: 36,710.5 km
Inclination: 15.3 °
Period: 1,480.1 minutes
Semi major axis: 43021 km
RCS: 7.6859 m2 (large)
Launch date: March 5, 1984
Source: International Telecommunications Satellite Organization (ITSO)
Launch site: FRENCH GUIANA (FRGUI)
aabbcc
Your satellite tracking list
Your tracking list is empty




NASA's NSSDC Master Catalog

Two Line Element Set (TLE):
1 14786U 84023A   21131.07625164 -.00000152  00000-0  00000-0 0  9991
2 14786  15.3302 351.4469 0014012 166.0547 106.9062  0.97292519 27839
Source of the keplerian elements: AFSPC